sat.trackr.live / text

‹ back to catalog

HULIANWANG JISHU SHIYAN*

NORAD 58692 · 2023-212B

PAYLOAD ACTIVE UNKNOWN

§ Identity

Operator
Country
PRC
Launch date
2023-12-30
Launch site
JSC
Launch vehicle
Mass (kg)
RCS (m²)

External: N2YO · Heavens-Above · Gunter

§ Orbital elements

Epoch: 2026-05-25T04:47:54.591360Z

Period
107.35 min
Inclination
49.9978°
Eccentricity
0.0001313
Mean motion
13.41457048 rev/d
Perigee alt
1,102.9 km
Apogee alt
1,104.8 km
Semi-major
7,482.0 km
B*
5.0126e-5
RAAN
68.3234°
Arg perigee
27.5215°
Mean anomaly
332.5732°
Rev number
11,816

§ Raw data

HULIANWANG JISHU SHIYAN*1 58692U 23212B   26145.19993740 -.00000100  00000+0  50126-4 0  99992 58692  49.9978  68.3234 0001313  27.5215 332.5732 13.41457048118163

JSON: /api/v1/satellites/58692 · /tle

For live sub-satellite position, see the globe view (requires WebGL).

§ Visibility from observer

Set your observer location to see the next 7 days of passes ≥ 10°. The values pass through the URL so the page stays shareable.

No JS? Fill the form by hand. The geolocation button needs JavaScript.